Regional Weather Roundup
Issued by NWS

Home | Current Version | Previous Version | Graphics & Text | Print | Product List | Glossary On
Versions: 1 2 3 4 5 6 7 8 9 10 11 12 13 14 15 16 17 18 19 20 21 22 23 24 25 26 27 28 29 30 31 32 33 34 35 36 37 38 39 40 41 42 43 44 45 46 47 48 49 50
000
ASUS43 KBIS 250102
RWRND

NORTH DAKOTA REGIONAL WEATHER ROUNDUP
NATIONAL WEATHER SERVICE BISMARCK ND
800 PM CDT SAT SEP 24 2016

NOTE: "FAIR" INDICATES FEW OR NO CLOUDS BELOW 12,000 FEET WITH NO
SIGNIFICANT WEATHER AND/OR OBSTRUCTIONS TO VISIBILITY.


NDZ001>003-009>011-017-250200-
NORTHWEST NORTH DAKOTA

CITY           SKY/WX    TMP DP  RH WIND       PRES   REMARKS
WILLISTON      LGT RAIN  54  50  86 N22G37    29.80R
MINOT          CLOUDY    70  57  63 S7        29.68R
MINOT AFB      CLOUDY    64  62  94 NW13      29.68R
$$

NDZ018>021-031>035-040>046-250200-
SOUTHWEST NORTH DAKOTA

CITY           SKY/WX    TMP DP  RH WIND       PRES   REMARKS
BISMARCK       CLEAR     67  48  50 CALM      29.72R
DICKINSON      MOCLDY    57  52  83 SW8       29.70R
GARRISON         N/A     63  53  70 SW7       29.71R
HETTINGER ARPT CLOUDY    53  48  83 SW20G29   29.75S
$$

NDZ004>008-012>016-024-026-027-054-250200-
NORTHEAST NORTH DAKOTA

CITY           SKY/WX    TMP DP  RH WIND       PRES   REMARKS
GRAND FORKS    LGT RAIN  70  64  81 SE18G26   29.78S
GRND FRKS AFB  CLOUDY    70  65  84 S16       29.77S
DEVILS LAKE    PTCLDY    69  67  93 SE13      29.74S
$$

NDZ022-023-025-028>030-036>039-047>053-250200-
SOUTHEAST NORTH DAKOTA

CITY           SKY/WX    TMP DP  RH WIND       PRES   REMARKS
FARGO          LGT RAIN  70  66  87 SE15G22   29.81R
JAMESTOWN      CLEAR     68  62  81 S8        29.74F
$$





USA.gov is the U.S. government's official web portal to all federal, state and local government web resources and services.